{"data":{"norad_id":66257,"intl_designator":"2025-245Z","name":"STARLINK-35615","alt_names":[],"object_type":"PAYLOAD","status":"ACTIVE","operator":null,"country":"US","launch_date":"2025-10-29","launch_site_code":"AFETR","launch_vehicle":null,"mission":null,"orbit_class":"UNKNOWN","rcs_meters":null,"size_class":null,"mass_kg":null,"dimensions":null,"purposes":["comms"],"wikipedia_slug":null,"has_3d_model":false,"image_url":null,"decayed_at":null,"tle_current":{"epoch":"2026-09-20T21:53:49.586208Z","epoch_age_seconds":61094,"freshness":"FRESH","line1":"1 66257U 25245Z   26263.91237947  .00021289  00000+0  63934-3 0  9994","line2":"2 66257  53.1581  95.8498 0001078  92.8695 267.2431 15.34404450 51167","mean_motion":15.3440445,"eccentricity":0.0001078,"inclination_deg":53.1581,"raan_deg":95.8498,"arg_perigee_deg":92.8695,"mean_anomaly_deg":267.2431,"bstar":0.00063934,"rev_number":5116,"period_min":93.847485908947,"perigee_km":461.95257274918,"apogee_km":463.42745505338,"semimajor_km":6840.8270139013,"source":"CELESTRAK","updated_at":"2026-09-21T09:00:35.850750Z"}}}